CW0775 Weather Reports


time (UTC)temp
F
wind
direction
speed
knots
gust
knots
rain 1hr
in
rain 24hr
in
rain mn
in
humidity
%
barometer
mb
20260502193005 60 269 0.0 2.6 0.00 0.00 0.00 79 1015.2
20260502191505 62 273 0.0 0.0 0.00 0.00 0.00 76 1015.2
20260502191004 62 273 0.0 0.0 0.00 0.00 0.00 75 1015.2
20260502190505 63 271 0.0 1.7 0.00 0.00 0.00 74 1015.2
20260502190005 63 270 1.7 2.6 0.00 0.00 0.00 74 1015.1
20260502184504 65 272 0.0 0.0 0.00 0.00 0.00 70 1015.0
20260502184005 66 269 0.0 0.0 0.00 0.00 0.00 68 1014.9
20260502183505 67 268 0.0 0.0 0.00 0.00 0.00 67 1014.9
20260502183005 68 268 0.0 0.0 0.00 0.00 0.00 65 1014.8
20260502181505 71 268 0.0 0.0 0.00 0.00 0.00 60 1014.9
20260502181004 71 268 0.0 0.0 0.00 0.00 0.00 60 1014.7
20260502180504 71 270 0.0 0.0 0.00 0.00 0.00 59 1014.9
20260502170504 79 296 1.7 2.6 0.00 0.00 0.00 46 1015.2
20260502163505 79 258 1.7 4.3 0.00 0.00 0.00 44 1015.3
20260502163005 79 307 1.7 4.3 0.00 0.00 0.00 43 1015.2
20260502161505 78 125 0.9 2.6 0.00 0.00 0.00 45 1015.6
20260502161005 78 66 1.7 4.3 0.00 0.00 0.00 46 1015.7
20260502160504 78 330 2.6 4.3 0.00 0.00 0.00 46 1015.6
20260502151504 80 178 1.7 6.1 0.00 0.00 0.00 44 1016.3
20260502151004 80 229 2.6 6.1 0.00 0.00 0.00 44 1016.3
20260502130504 79 119 4.3 7.0 0.00 0.00 0.00 40 1018.1
20260502123505 79 247 1.7 6.1 0.00 0.00 0.00 40 1018.6
20260502121504 77 310 0.9 6.1 0.00 0.00 0.00 41 1018.6
20260502121005 77 94 1.7 4.3 0.00 0.00 0.00 42 1018.8
20260502120504 77 306 0.9 2.6 0.00 0.00 0.00 43 1019.0
20260502114504 76 293 1.7 6.1 0.00 0.00 0.00 41 1019.1
20260502114004 76 165 2.6 4.3 0.00 0.00 0.00 41 1019.0
20260502113505 77 241 0.0 4.3 0.00 0.00 0.00 39 1019.3
20260502113004 75 170 2.6 6.1 0.00 0.00 0.00 44 1019.3
20260502111504 76 135 2.6 4.3 0.00 0.00 0.00 44 1019.5
20260502111005 74 279 0.0 4.3 0.00 0.00 0.00 44 1019.6
20260502110504 75 167 2.6 4.3 0.00 0.00 0.00 44 1019.6
20260502110005 75 127 0.9 4.3 0.00 0.00 0.00 45 1019.6
20260502103504 72 95 4.3 6.1 0.00 0.00 0.00 47 1019.7
20260502103004 72 145 5.2 7.0 0.00 0.00 0.00 45 1020.2
20260502101504 72 120 1.7 6.1 0.00 0.00 0.00 47 1020.3
20260502101003 71 60 1.7 4.3 0.00 0.00 0.00 45 1020.3
20260502100503 71 100 2.6 4.3 0.00 0.00 0.00 46 1020.3
20260502091506 69 253 1.7 2.6 0.00 0.00 0.00 42 1021.0
20260502091006 68 209 0.9 6.1 0.00 0.00 0.00 48 1021.0
20260502090507 67 72 1.7 4.3 0.00 0.00 0.00 51 1021.0
20260502071005 57 241 0.0 1.7 0.00 0.00 0.00 69 1021.8
20260502070505 57 267 0.0 1.7 0.00 0.00 0.00 69 1021.7
20260502064505 55 135 0.9 1.7 0.00 0.00 0.00 70 1022.0
20260502064005 54 232 0.9 2.6 0.00 0.00 0.00 72 1022.0
20260502063006 53 238 0.0 4.3 0.00 0.00 0.00 74 1022.1
20260502061006 51 251 0.0 1.7 0.00 0.00 0.00 78 1022.0
20260502060505 50 302 0.0 1.7 0.00 0.00 0.00 78 1022.0
20260502060005 49 121 0.9 1.7 0.00 0.00 0.00 80 1022.0
20260502054506 48 142 0.0 1.7 0.00 0.00 0.00 82 1022.0
20260502053005 47 292 0.0 1.7 0.00 0.00 0.00 82 1022.0
20260502051506 42 274 0.0 0.0 0.00 0.00 0.00 90 1022.0
20260502051006 42 274 0.0 0.0 0.00 0.00 0.00 91 1022.0
20260502050505 41 274 0.0 0.0 0.00 0.00 0.00 92 1022.0
20260502050005 40 273 0.0 0.0 0.00 0.00 0.00 92 1021.7
20260502044505 38 270 0.0 0.0 0.00 0.00 0.00 94 1021.7
20260502044005 38 270 0.0 0.0 0.00 0.00 0.00 94 1021.7
20260502043005 38 270 0.0 0.0 0.00 0.00 0.00 94 1022.0
20260502041505 38 265 0.0 0.0 0.00 0.00 0.00 94 1022.0
20260502041005 38 264 0.0 0.0 0.00 0.00 0.00 94 1022.0
20260502034505 38 274 0.0 0.0 0.00 0.00 0.00 93 1022.0
20260502034005 38 274 0.0 0.0 0.00 0.00 0.00 93 1021.8
20260502033005 39 274 0.0 0.0 0.00 0.00 0.00 93 1022.0
20260502031506 39 274 0.0 0.0 0.00 0.00 0.00 93 1022.0
20260502031005 39 274 0.0 0.0 0.00 0.00 0.00 92 1022.0
20260502030005 39 274 0.0 1.7 0.00 0.00 0.00 92 1022.0
20260502024005 40 274 0.0 0.0 0.00 0.00 0.00 91 1022.0
20260502023506 40 274 0.0 0.0 0.00 0.00 0.00 91 1021.7
20260502023005 40 274 0.0 0.0 0.00 0.00 0.00 91 1022.0
20260502021505 40 274 0.0 0.0 0.00 0.00 0.00 91 1022.0
20260502020505 40 274 0.0 0.0 0.00 0.00 0.00 90 1022.0
20260502020005 41 274 0.0 0.0 0.00 0.00 0.00 90 1022.0
20260502014505 41 274 0.0 0.0 0.00 0.00 0.00 90 1021.9
20260502014005 41 274 0.0 0.0 0.00 0.00 0.00 90 1021.7
20260502013506 41 274 0.0 0.0 0.00 0.00 0.00 90 1022.0
20260502013005 41 274 0.0 0.0 0.00 0.00 0.00 90 1022.0
20260502011505 41 274 0.0 0.0 0.00 0.00 0.00 89 1022.0
20260502011005 41 274 0.0 0.0 0.00 0.00 0.00 89 1022.0
20260502010505 41 273 0.0 0.0 0.00 0.00 0.00 89 1021.7
20260502010005 41 273 0.0 1.7 0.00 0.00 0.00 89 1022.0
20260502004005 42 273 0.0 0.0 0.00 0.00 0.00 88 1022.4
20260502003505 42 272 0.0 0.0 0.00 0.00 0.00 87 1022.3
20260502003005 42 263 0.0 2.6 0.00 0.00 0.00 87 1022.2
20260502001505 42 267 0.0 0.0 0.00 0.00 0.00 88 1022.4
20260502001005 42 267 0.0 1.7 0.00 0.00 0.00 87 1022.4
20260502000505 42 267 0.9 2.6 0.00 0.00 0.00 87 1022.4
20260502000005 42 275 0.0 0.0 0.00 0.00 0.00 87 1022.4
20260501234505 43 275 0.0 1.7 0.00 0.00 0.00 87 1022.7
20260501234005 43 274 0.0 0.0 0.00 0.00 0.00 86 1022.6
20260501233505 43 274 0.0 0.0 0.00 0.00 0.00 86 1022.5
20260501231505 44 272 0.9 2.6 0.00 0.00 0.00 85 1022.6
20260501231005 44 272 0.9 1.7 0.00 0.00 0.00 84 1022.7
20260501230505 45 275 1.7 2.6 0.00 0.00 0.00 83 1022.7
20260501230005 45 274 1.7 4.3 0.00 0.00 0.00 84 1022.7
20260501224505 45 312 2.6 4.3 0.00 0.00 0.00 83 1022.4
20260501223506 45 261 0.9 2.6 0.00 0.00 0.00 83 1022.5
20260501223005 45 274 0.9 2.6 0.00 0.00 0.00 83 1022.7
20260501221505 45 278 1.7 2.6 0.00 0.00 0.00 83 1022.7
20260501221005 46 273 0.9 2.6 0.00 0.00 0.00 83 1022.7
20260501220505 46 271 0.9 2.6 0.00 0.00 0.00 83 1022.7
20260501220005 46 275 1.7 4.3 0.00 0.00 0.00 82 1022.7
20260501214004 47 267 0.9 1.7 0.00 0.00 0.00 79 1022.7
20260501213005 47 282 0.9 2.6 0.00 0.00 0.00 79 1022.7
20260501211505 48 276 0.0 1.7 0.00 0.00 0.00 77 1022.7
20260501211005 48 273 1.7 2.6 0.00 0.00 0.00 77 1022.7
20260501210505 49 274 1.7 1.7 0.00 0.00 0.00 75 1022.7
20260501210004 49 278 1.7 2.6 0.00 0.00 0.00 75 1022.7
20260501204505 49 275 1.7 1.7 0.00 0.00 0.00 74 1022.7
20260501203005 50 274 1.7 2.6 0.00 0.00 0.00 72 1022.4
20260501201505 51 281 1.7 2.6 0.00 0.00 0.00 70 1022.4
20260501200005 52 275 0.9 2.6 0.00 0.00 0.00 66 1022.7
20260501194005 53 275 1.7 2.6 0.00 0.00 0.00 65 1022.4
20260501193505 54 280 1.7 2.6 0.00 0.00 0.00 65 1022.4